RH
100 99 98 96 98 100 99 97 94 88 91 85 70 72 74 70 67 65 61 63 65 64 68 71 73 73 71 69 67 62 64 59 52 72 71 78 70 60 56 56 47 50 60
100 100 100 100 99 98 100 99 92 97 100 100 100 98 92 78 71 70 66 66 68 67 63 68 71 72 70 73 72 70 65 65 61 61 65 71 69 64 62 60 52 56 61
97 100 100 100 100 100 100 100 100 100 98 98 100 99 99 100 97 86 67 64 65 61 62 62 68 64 74 62 61 67 68 67 57 58 63 66 67 66 64 61 67 66 63
97 98 95 100 100 100 100 100 99 97 98 100 99 96 94 92 99 99 96 96 92 86 77 68 77 74 63 58 60 62 65 63 56 61 69 68 66 68 67 71 68 68 62
97 99 100 93 91 97 100 100 100 100 99 97 94 93 92 96 95 99 100 100 98 93 93 92 87 67 60 53 55 60 62 59 61 65 66 67 71 72 66 64 58 60 67
86 90 96 100 98 98 100 100 99 100 100 100 99 97 94 93 93 95 98 100 100 100 98 92 74 72 62 60 59 59 60 59 61 66 67 62 62 63 64 67 57 62 51
85 84 89 96 100 97 98 99 99 99 100 96 99 100 97 94 92 94 95 97 99 100 92 83 83 75 70 64 49 38 40 42 41 43 54 58 61 61 62 68 69 63 57
86 84 88 93 96 100 99 98 99 100 99 100 96 94 99 99 95 97 99 99 99 95 86 87 87 81 64 43 36 57 64 57 51 42 39 54 53 58 57 67 72 70 72
95 90 91 94 96 100 100 100 100 98 99 100 100 100 100 99 100 100 100 100 100 99 99 99 92 79 73 56 61 57 44 42 41 33 37 43 45 49 53 53 67 59 54
95 96 96 98 99 100 99 99 100 100 99 99 100 100 100 100 100 100 100 100 100 100 100 96 92 90 81 70 65 59 59 72 70 83 73 74 72 64 57 68 69 62 61
100 97 97 98 99 100 99 100 100 100 100 100 100 100 100 100 100 100 100 100 99 100 100 100 99 94 91 82 70 76 85 92 99 99 88 81 75 62 55 52 55 75 75
97 98 97 97 100 100 99 99 100 100 100 99 100 100 99 100 100 100 100 100 100 98 99 100 99 100 98 88 80 98 100 99 88 81 78 76 76 83 77 80 81 82 75
93 94 96 99 100 99 99 98 98 99 100 100 100 100 99 100 100 100 100 100 100 100 100 100 100 100 99 99 99 99 100 86 83 82 82 86 88 88 80 74 65 60 57
93 93 92 95 97 99 98 99 99 99 100 100 100 100 100 100 100 100 100 100 100 100 100 100 100 99 99 98 99 100 90 90 86 84 87 93 80 73 95 88 94 77 94
100 99 92 93 93 98 99 100 100 99 100 100 100 100 99 99 99 98 98 99 99 99 100 100 100 100 99 100 100 97 93 87 85 87 92 91 89 92 97 89 75 80 94
100 96 97 92 95 97 98 98 95 99 99 99 99 100 100 100 100 100 100 100 100 99 100 100 100 100 99 99 99 96 88 89 89 89 89 88 91 95 99 96 81 96 95
100 100 96 94 97 96 97 97 99 99 92 95 98 100 100 99 99 100 100 100 99 100 99 100 99 99 99 99 98 95 91 87 79 90 94 96 98 99 99 98 91 98 94
100 100 96 93 99 99 95 96 98 100 100 99 97 98 98 99 100 100 100 99 100 99 100 99 99 98 98 98 97 96 91 89 95 98 99 100 100 97 93 97 98 97 94
100 100 100 99 97 96 94 95 97 96 99 100 99 98 98 99 100 99 99 100 99 100 98 98 97 97 97 97 96 87 79 93 98 100 99 90 78 78 99 98 98 97 96
100 100 99 97 95 94 94 94 95 96 95 99 99 100 100 100 100 100 99 99 99 98 97 97 97 97 96 96 95 84 86 99 90 90 85 75 86 100 98 96 99 100 97
99 100 98 97 96 98 99 96 94 95 95 99 99 100 99 99 98 99 100 98 97 97 97 97 97 97 96 96 95 91 84 91 80 77 77 84 89 98 97 99 100 100 100
98 98 98 98 99 99 100 100 100 98 99 99 99 99 99 97 97 98 98 98 97 97 97 97 97 96 96 95 95 87 81 78 68 68 73 80 83 88 90 97 96 100 100
98 97 96 98 100 100 100 100 100 100 99 99 99 99 98 98 97 97 97 97 97 97 97 97 96 97 97 92 76 69 71 70 70 70 72 75 80 94 99 99 100 100 100
99 100 100 100 100 100 100 100 97 99 99 99 99 97 97 97 97 97 97 97 97 97 97 96 96 95 95 95 85 80 76 74 72 72 74 78 81 91 100 96 90 99 100
100 100 100 100 99 98 97 96 97 98 98 98 98 97 96 97 96 96 96 96 97 96 97 96 96 96 96 94 87 80 73 71 73 77 83 90 92 91 98 85 80 91 96
100 100 99 98 98 96 96 96 97 97 97 97 97 97 96 96 96 96 96 96 96 96 96 96 96 95 95 92 75 74 73 71 76 84 92 90 94 98 83 82 92 98 100
Wind_Speed
12 16 20 18 19 22 26 31 27 25 25 25 25 24 23 25 28 27 30 26 28 26 30 29 27 23 24 25 22 20 17 15 12 6 12 13 19 17 17 14 11 8 6
5 14 20 22 23 22 17 14 19 31 29 27 25 25 31 30 28 29 27 26 24 25 29 26 24 27 29 23 21 21 20 17 12 14 13 16 16 17 14 13 11 7 6
10 6 10 14 17 17 15 17 19 14 10 14 20 23 30 31 34 35 34 34 31 32 33 31 29 27 27 28 27 27 22 22 17 14 12 13 12 15 13 11 9 8 7
14 11 10 6 5 8 10 12 13 11 15 18 20 20 19 19 27 34 36 34 37 39 35 30 28 29 31 28 24 25 25 20 18 20 12 19 13 14 13 11 9 8 7
14 13 10 3 2 1 5 6 9 9 13 15 15 17 16 20 25 32 37 40 39 38 33 30 32 31 27 26 27 24 24 24 22 20 17 15 13 13 16 11 9 7 4
13 13 12 10 7 5 2 3 6 9 11 13 16 19 20 22 23 26 31 35 35 32 32 33 33 28 24 22 22 22 24 27 24 16 12 14 13 13 14 11 9 6 6
13 12 12 11 8 6 6 2 3 7 11 11 14 18 20 20 20 23 26 28 30 32 33 35 30 29 27 26 23 24 22 20 18 18 18 17 16 16 15 12 8 7 4
16 17 15 12 10 7 5 2 1 3 7 10 13 16 18 20 21 22 27 27 28 31 35 35 33 32 31 32 31 25 18 13 12 11 12 13 12 15 13 10 8 6 3
18 17 16 15 13 10 9 7 3 3 6 9 12 16 18 20 20 24 29 27 28 30 31 32 35 35 34 32 30 26 21 16 12 12 13 13 13 13 11 10 7 6 4
21 19 16 15 13 12 11 8 6 5 5 6 8 10 14 17 16 22 30 28 26 27 27 31 34 36 35 33 31 29 27 22 21 16 15 15 13 11 9 6 6 4 3
21 18 16 16 15 14 13 12 9 7 5 4 6 7 9 12 13 22 29 29 29 28 29 30 30 32 31 29 28 27 26 25 20 17 14 12 10 9 7 6 5 4 4
18 16 16 16 15 13 14 14 11 8 7 6 5 6 7 9 11 26 28 31 27 30 31 30 32 32 29 26 26 21 23 23 19 15 14 12 10 8 7 5 5 3 2
18 16 16 16 13 12 12 13 13 10 8 7 7 8 9 9 14 24 23 21 24 27 30 34 36 31 28 25 23 23 25 21 18 16 13 11 9 8 8 6 3 1 2
16 15 14 16 15 13 12 10 9 9 9 9 8 10 10 11 15 22 20 18 21 24 28 30 33 32 29 25 24 25 19 17 17 15 13 11 11 9 6 4 2 0 1
14 15 15 13 13 13 10 10 9 8 8 10 12 13 14 16 21 26 27 28 28 30 34 34 31 30 28 24 25 21 16 16 15 14 13 12 10 8 6 3 1 1 1
13 12 11 13 11 11 11 10 9 8 9 9 12 14 17 16 19 24 25 29 29 37 35 31 27 27 25 24 23 20 17 16 14 14 12 11 10 8 5 2 1 1 2
15 14 13 11 12 11 10 10 10 9 7 7 10 12 15 19 17 23 27 28 30 35 28 26 26 26 24 23 23 21 19 16 16 14 12 10 9 7 5 3 2 1 2
17 14 12 11 10 9 9 10 9 8 5 6 8 10 13 15 20 26 25 27 26 20 23 25 24 25 25 23 24 22 17 17 14 13 12 10 8 6 6 5 2 1 4
17 15 14 12 11 10 9 9 9 9 7 6 8 9 12 16 20 23 31 26 22 21 24 24 26 27 25 24 22 21 20 16 14 13 11 10 9 8 7 5 2 1 5
18 17 16 13 13 11 9 8 8 9 7 7 9 10 17 21 21 19 20 21 20 22 24 26 26 27 26 25 23 21 17 15 14 12 11 9 10 8 6 4 1 3 5
18 18 17 13 11 11 10 8 8 7 8 8 9 12 21 18 16 18 19 22 23 24 23 25 27 26 26 24 23 21 18 15 14 12 12 12 11 7 4 2 2 4 6
16 14 14 12 9 9 7 7 5 5 7 9 12 16 17 18 16 15 20 20 20 21 24 26 26 26 25 24 23 22 19 16 15 14 13 12 10 6 3 2 3 5 7
13 13 13 11 9 6 6 4 2 5 7 14 17 16 17 17 17 17 17 17 20 21 23 24 25 25 23 21 20 19 18 17 14 13 12 11 8 5 3 3 4 5 7
13 13 11 10 8 6 6 4 1 7 11 12 14 13 11 12 14 16 18 18 20 21 22 24 24 24 23 21 18 17 16 15 13 12 10 8 7 5 4 5 5 6 7
13 11 10 9 8 6 3 1 2 5 9 12 13 14 16 17 18 19 19 20 21 22 22 23 23 22 21 19 18 17 15 13 10 8 8 8 6 5 4 5 6 7 8
11 9 8 7 7 5 3 2 4 6 10 13 15 17 18 18 18 19 21 22 23 22 22 22 22 20 19 18 16 13 11 9 8 7 6 6 5 5 5 6 6 7 7
Wind_Direction
193 210 214 214 231 204 212 220 221 228 229 222 217 206 206 208 212 210 215 213 212 213 215 214 211 212 216 223 224 222 219 207 213 167 187 188 187 184 199 201 210 210 221
98 186 197 204 208 224 224 223 213 225 223 221 223 225 221 222 217 213 212 214 213 213 219 216 212 211 217 224 220 218 215 209 189 167 174 177 189 186 193 203 212 214 215
41 101 168 186 200 207 202 210 217 220 231 229 224 215 219 219 223 224 220 219 225 227 226 220 209 212 224 220 219 220 205 206 200 172 149 170 174 183 190 203 204 217 231
34 44 54 79 194 211 217 223 221 215 211 206 212 218 221 222 232 230 229 230 229 224 222 220 226 224 218 209 206 209 203 186 182 168 149 167 171 180 194 203 208 217 227
39 50 46 45 44 205 229 230 226 216 223 228 228 221 222 224 224 228 227 222 220 221 222 224 222 213 212 206 197 191 190 187 178 162 148 156 175 178 195 197 206 205 228
42 36 29 36 56 43 54 217 227 224 221 220 220 221 219 222 226 227 224 216 217 215 212 212 206 202 194 192 194 194 198 186 174 152 158 169 182 182 175 183 186 194 213
29 35 39 33 39 46 34 5 258 229 218 222 226 225 226 229 234 231 227 222 213 210 203 198 191 189 188 184 180 175 174 177 179 182 180 174 173 188 181 172 177 194 203
16 18 15 23 20 22 31 35 249 217 215 214 223 230 232 235 239 234 221 216 210 204 205 202 195 187 185 175 171 171 171 168 173 180 184 175 175 172 174 173 171 171 181
7 7 3 4 7 9 13 353 324 270 255 249 243 234 233 235 234 218 205 205 205 205 206 204 197 188 185 184 175 161 150 143 152 164 161 158 158 171 178 175 166 172 186
351 353 354 360 1 357 1 344 327 305 280 263 254 245 239 240 233 212 205 201 192 190 194 193 194 189 182 186 180 170 154 147 151 143 137 140 150 160 169 157 165 171 164
335 348 349 353 353 353 349 338 329 317 292 265 249 248 243 238 232 215 214 207 195 179 177 176 177 176 177 182 187 183 177 167 147 144 143 142 141 150 155 164 160 150 170
334 343 344 347 346 346 342 335 334 318 298 284 267 248 238 237 229 208 214 214 205 188 176 174 172 167 169 174 177 174 170 153 150 151 152 151 149 149 151 153 152 148 182
336 340 337 339 341 340 339 338 332 327 300 274 248 243 235 224 212 206 193 198 192 187 181 177 166 162 163 163 170 157 154 154 156 156 156 153 151 156 159 154 162 237 293
331 332 330 334 336 335 335 329 326 321 309 287 250 233 231 217 202 182 181 177 173 178 169 158 159 157 161 161 152 157 158 164 163 157 151 148 154 152 148 162 152 325 119
332 332 332 335 332 329 321 319 314 300 293 289 265 243 216 202 201 197 189 177 178 172 154 150 150 153 150 154 153 157 157 155 150 149 149 150 153 153 148 152 148 15 43
327 330 331 329 326 322 315 315 310 303 296 278 272 259 241 231 214 203 196 188 179 167 156 155 155 154 153 151 152 153 155 151 153 153 151 154 155 154 155 159 154 345 328
328 327 327 327 327 321 316 308 312 320 298 272 275 269 257 243 211 199 196 188 178 165 159 159 155 155 153 149 147 147 148 156 161 154 151 152 153 151 157 166 177 192 321
331 325 327 321 315 319 316 304 296 294 297 296 263 251 245 233 205 202 190 171 160 160 154 150 147 146 147 147 151 151 150 152 150 149 151 155 158 165 162 162 163 356 342
338 333 326 322 320 313 307 303 291 283 278 274 265 241 230 212 198 187 172 165 155 145 143 140 148 155 155 156 157 161 161 154 154 153 157 164 168 164 158 157 151 323 318
338 332 331 324 324 315 304 293 280 277 274 260 236 207 177 171 164 162 157 148 145 142 149 151 157 161 161 163 162 166 157 155 159 162 165 165 158 155 155 158 183 310 307
334 330 326 324 319 314 301 284 266 258 256 236 214 176 164 162 145 141 141 148 157 162 164 163 162 163 164 166 167 166 170 166 169 170 167 163 161 158 167 193 268 296 301
330 327 322 317 314 309 298 282 254 231 227 174 159 151 160 154 145 145 152 158 165 168 166 164 162 165 168 168 170 172 171 170 171 168 167 169 172 176 187 236 279 297 306
329 328 329 322 316 309 310 294 222 150 134 128 128 128 139 142 148 152 155 159 162 161 162 163 163 162 165 166 170 174 174 175 175 174 174 177 180 183 220 237 289 302 300
333 333 334 332 328 323 311 294 194 144 139 130 136 138 147 155 155 156 155 156 158 159 161 162 161 159 159 160 164 168 171 171 173 174 177 182 191 199 230 263 296 298 297
336 335 339 342 339 339 333 291 150 149 139 141 142 146 153 152 149 151 154 157 157 155 157 157 155 156 158 163 166 168 168 172 179 191 199 205 214 216 251 273 291 306 311
348 349 350 352 356 357 16 94 123 128 134 140 143 145 149 150 153 157 158 158 156 154 155 154 152 152 156 158 163 166 172 178 183 191 198 202 216 233 252 276 294 306 301